Tracking 19192 objects as of 19-Jun-2018
HD Live streaming from Space Station
objects crossing your sky now

FENGYUN 1C DEB

Track FENGYUN 1C DEB now!
10-day predictions


NORAD ID: 33600
Int'l Code: 1999-025DCH
Perigee: 490.5 km
Apogee: 876.1 km
Inclination: 96.3 °
Period: 98.3 minutes
Semi major axis: 7054 km
RCS: 0.0008 m2 (small)
Launch date: May 10, 1999
Source: People's Republic of China (PRC)
Launch site: Taiyaun Space Center, China (TSC)

Note: This is SATELLITE DEBRIS
aabbcc
Your satellite tracking list
Your tracking list is empty




NASA's NSSDC Master Catalog

Two Line Element Set (TLE):
1 33600U 99025DCH 18169.50291390 +.00001257 +00000-0 +13883-3 0  9992
2 33600 096.2708 184.6934 0273328 253.5196 103.5819 14.65274322554600
Source of the keplerian elements: AFSPC